Weather History for KINK - December, 2011

Change the Weather History Date:

Friday, December 30, 2011

  Actual Average Record
Temperature  
Mean Temperature 50 °F -  
Max Temperature 64 °F 60 °F 84 °F (1951)
Min Temperature 37 °F 28 °F 10 °F (1983)
Degree Days  
Heating Degree Days 14    
Moisture  
Dew Point 28 °F    
Average Humidity 49    
Maximum Humidity 79    
Minimum Humidity 19    
Precipitation  
Precipitation 0.00 in - - ()
Sea Level Pressure  
Sea Level Pressure 30.04 in    
Wind  
Wind Speed 6 mph (ENE)    
Max Wind Speed 15 mph    
Max Gust Speed 30 mph    
Visibility 10 miles    
Events      
Averages and records for this station are not official NWS values.
T = Trace of Precipitation, MM = Missing Value Source: NWS Daily Summary

Daily Weather History Graph

Daily Weather History Graph

Search for Another Location

Airport or City:

Trip Planner

Search our weather history database for the weather conditions in past years. The results will help you decide how hot, cold, wet, or windy it might be!

Date:

Astronomy

Dec. 30, 2011 Rise Set
Actual Time 7:52 AM CST 5:58 PM CST
Civil Twilight 7:25 AM CST 6:25 PM CST
Nautical Twilight 6:54 AM CST 6:55 PM CST
Astronomical Twilight 6:25 AM CST 7:25 PM CST
Moon 11:36 AM CST (12/30) No Moon Set
Length of Visible Light 10h 59m
Length of Day
10h 06m
Waxing Crescent, 36% of the Moon is Illuminated
Dec 30
Waxing Crescent
Jan 1
First Quarter
Jan 9
Full
Jan 16
Last Quarter
Jan 23
New

Hourly Weather History & Observations

Time (CST) Temp. Windchill Dew Point Humidity Pressure Visibility Wind Dir Wind Speed Gust Speed Precip Events Conditions
12:53 AM 44.1 °F 42.5 °F 30.9 °F 60% 29.89 in 10.0 mi NNW 3.5 mph - N/A   Clear
1:53 AM 42.1 °F 37.7 °F 30.9 °F 65% 29.90 in 10.0 mi WNW 6.9 mph - N/A   Clear
2:53 AM 39.0 °F 34.8 °F 30.9 °F 73% 29.92 in 10.0 mi NW 5.8 mph - N/A   Clear
3:53 AM 39.0 °F 34.8 °F 30.9 °F 73% 29.96 in 10.0 mi North 5.8 mph - N/A   Clear
4:53 AM 37.0 °F 31.0 °F 30.9 °F 79% 29.97 in 10.0 mi North 8.1 mph - N/A   Clear
5:53 AM 42.1 °F 34.5 °F 33.1 °F 70% 30.03 in 10.0 mi NE 15.0 mph 29.9 mph N/A   Clear
6:53 AM 42.1 °F 37.1 °F 33.1 °F 70% 30.08 in 10.0 mi North 8.1 mph - N/A   Clear
7:53 AM 39.9 °F 35.1 °F 32.0 °F 73% 30.10 in 10.0 mi North 6.9 mph - N/A   Clear
8:53 AM 43.0 °F 41.3 °F 34.0 °F 71% 30.13 in 10.0 mi NW 3.5 mph - N/A   Clear
9:53 AM 50.0 °F - 34.0 °F 54% 30.17 in 10.0 mi NW 4.6 mph - N/A   Clear
10:53 AM 55.9 °F - 26.1 °F 32% 30.16 in 10.0 mi SE 6.9 mph - N/A   Clear
11:53 AM 59.0 °F - 24.8 °F 27% 30.19 in 10.0 mi East 8.1 mph - N/A   Clear
12:53 PM 61.0 °F - 23.0 °F 23% 30.10 in 10.0 mi Variable 6.9 mph - N/A   Clear
1:53 PM 63.0 °F - 21.0 °F 20% 30.07 in 10.0 mi SE 8.1 mph - N/A   Clear
2:53 PM 64.0 °F - 21.0 °F 19% 30.04 in 10.0 mi East 3.5 mph - N/A   Clear
3:53 PM 64.9 °F - 21.9 °F 19% 30.03 in 10.0 mi SSE 9.2 mph - N/A   Clear
4:53 PM 64.0 °F - 23.0 °F 21% 30.02 in 10.0 mi South 6.9 mph - N/A   Clear
5:53 PM 57.9 °F - 26.1 °F 30% 30.03 in 10.0 mi South 5.8 mph - N/A   Clear
6:53 PM 52.0 °F - 27.0 °F 38% 30.04 in 10.0 mi SE 8.1 mph - N/A   Clear
7:53 PM 50.0 °F - 27.0 °F 41% 30.04 in 10.0 mi SE 8.1 mph - N/A   Clear
8:53 PM 46.0 °F 42.5 °F 27.0 °F 47% 30.04 in 10.0 mi SE 6.9 mph - N/A   Clear
9:53 PM 46.0 °F 44.8 °F 27.0 °F 47% 30.02 in 10.0 mi SE 3.5 mph - N/A   Clear
10:53 PM 41.0 °F - 28.0 °F 60% 30.01 in 10.0 mi Calm Calm - N/A   Clear
11:53 PM 37.0 °F 33.3 °F 28.9 °F 73% 30.01 in 10.0 mi North 4.6 mph - N/A   Clear